This demonstration page uses our WeatherBlox Daily Observations layout. Learn more.

Left ArrowRight Arrow

39.29038, -76.61219

Hourly Observations for July 8, 2021

Temp ( °F °C ) Dew Point ( °F °C ) Humidity (%) Winds ( mph kmh ) Pressure ( in mb ) Visibility ( mi km ) Precip ( " mm )
12:54 am 00:54 Partly Cloudy 80 26.7 70 21.1 71 71 SSW 5 7 29.92 1013 10 16 N/A
1:54 am 01:54 Partly Cloudy 77 25 70 21.1 79 79 WNW 3 6 29.92 1013 10 16 N/A
2:54 am 02:54 Mostly Cloudy 77 25 70 21.1 79 79 SSW 3 6 29.93 1013 10 16 N/A
3:54 am 03:54 Cloudy 78 25.6 70 21.1 76 76 SW 5 7 29.92 1013 7 11 N/A
4:54 am 04:54 Mostly Cloudy 77 25 70 21.1 79 79 SW 3 6 29.92 1013 10 16 N/A
5:54 am 05:54 Mostly Cloudy 78 25.6 71 21.7 79 79 SW 3 6 29.93 1013 8 13 N/A
6:54 am 06:54 Sunny 78 25.6 71 21.7 79 79 WSW 3 6 29.93 1014 10 16 N/A
7:54 am 07:54 Mostly Cloudy 79 26.1 71 21.7 77 77 W 5 7 29.94 1014 10 16 N/A
8:54 am 08:54 Cloudy 81 27.2 71 21.7 72 72 W 5 7 29.95 1014 10 16 N/A
9:54 am 09:54 Cloudy 83 28.3 71 21.7 67 67 VRB 3 6 29.96 1015 10 16 N/A
10:54 am 10:54 Mostly Cloudy 86 30 70 21.1 59 59 N N/A 29.96 1015 10 16 N/A
11:54 am 11:54 Mostly Cloudy 89 31.7 71 21.7 55 55 SSW 6 9 29.96 1015 10 16 N/A
12:54 pm 12:54 Mostly Cloudy 88 31.1 70 21.1 55 55 SE 9 15 29.96 1014 10 16 N/A
1:54 pm 13:54 Cloudy 87 30.6 71 21.7 59 59 SSW 9 15 29.95 1014 10 16 N/A
2:36 pm 14:36 Cloudy with Thunderstorms 85 29.4 72 22.2 65 65 S 7 11 29.94 1014 10 16 N/A
2:54 pm 14:54 Cloudy with Thunderstorms 76 24.4 68 20 77 77 SSW 24 39 29.96 1015 3 4 0.04 1.02
3:03 pm 15:03 Cloudy with Thunderstorms 74 23.3 66 18.9 76 76 S 7 11 29.95 1014 4 6 0.21 5.33
3:18 pm 15:18 Cloudy with Light Rain 75 23.9 69 20.6 82 82 S 3 6 29.94 1014 8 13 0.21 5.33
3:54 pm 15:54 Mostly Cloudy 78 25.6 71 21.7 79 79 S 5 7 29.93 1014 10 16 0.21 5.33
4:54 pm 16:54 Mostly Cloudy 80 26.7 73 22.8 79 79 WSW 5 7 29.93 1014 10 16 0.04 1.02
5:54 pm 17:54 Cloudy 81 27.2 72 22.2 74 74 S 6 9 29.94 1014 10 16 N/A
6:54 pm 18:54 Cloudy with Light Rain 79 26.1 69 20.6 72 72 VRB 6 9 29.95 1014 9 14 0.00 0.00
7:54 pm 19:54 Cloudy with Light Rain 76 24.4 68 20 77 77 N N/A 29.95 1014 4 6 0.01 0.25
8:54 pm 20:54 Cloudy 73 22.8 68 20 84 84 N 6 9 29.91 1013 10 16 0.04 1.02
9:54 pm 21:54 Cloudy 73 22.8 69 20.6 87 87 N N/A 29.89 1012 10 16 N/A
10:54 pm 22:54 Cloudy 75 23.9 68 20 79 79 ENE 8 13 29.86 1011 10 16 N/A
11:54 pm 23:54 Cloudy 74 23.3 69 20.6 85 85 NNE 10 17 29.83 1010 10 16 N/A

Powered by AerisWeather